Location: Leipzig
(51.3392°N, 12.3528°E)
Time: 21:58:26
(UTC+01:00)

N. Korean satellite - Visible Passes

Search period start: 22 February 2018 00:00
Search period end: 04 March 2018 00:00
Orbit: 459 x 514 km, 97.2° (Epoch: 21 February)

Date Brightness Start Highest point End Pass type
(mag) Time Alt. Az. Time Alt. Az. Time Alt. Az.
22 Feb 10.1 05:55:22 10° NE 05:57:44 16° E 06:00:05 10° SE visible
22 Feb 7.3 18:09:01 10° S 18:12:26 57° W 18:15:55 10° NNW visible
23 Feb 10.5 19:22:21 10° W 19:22:41 10° W 19:23:02 10° W visible
24 Feb 9.8 18:56:13 10° SW 18:58:41 18° W 19:01:10 10° NW visible
25 Feb 9.3 06:16:58 10° NE 06:20:09 27° E 06:23:21 10° SSE visible
25 Feb 8.7 18:31:36 10° SSW 18:34:45 31° W 18:37:58 10° NNW visible
26 Feb 10.2 05:53:52 10° NE 05:56:13 16° E 05:58:33 10° SE visible
27 Feb 10.5 19:20:19 10° W 19:21:08 11° W 19:21:57 10° WNW visible
28 Feb 9.8 18:54:34 10° SW 18:57:07 19° W 18:59:42 10° NW visible
01 Mar 9.3 06:15:26 10° NE 06:18:37 26° E 06:21:49 10° SSE visible
01 Mar 8.7 18:29:58 10° SSW 18:33:10 33° W 18:36:27 10° NNW visible
02 Mar 10.2 05:52:21 10° NE 05:54:40 16° E 05:56:59 10° SE visible
03 Mar 10.4 19:18:25 10° WSW 19:19:32 11° W 19:20:39 10° WNW visible
